Location: Castro Valley
(37.6941°N, 122.0863°W)
Time: 13:03:25
(UTC+00:00)

Meteor 1-28 Rocket - Pass Details

Date: 19 May 2025
Orbit: 443 x 456 km, 97.6° (Epoch: 15 June)

Event Time Altitude Azimuth Distance (km) Brightness Sun altitude
Exits shadow 12:16:14 - 201° (SSW) 1,981 5.7 -7.6°
Reaches altitude 10° 12:17:20 10° 211° (SSW) 1,589 5.1 -7.4°
Maximum altitude 12:20:04 22° 264° (W) 1,044 4.2 -6.9°
Drops below altitude 10° 12:22:49 10° 317° (NW) 1,604 5.6 -6.5°
Sets 12:25:11 0° 333° (NNW) 2,484 6.7 -6.1°
